Weather in Karachikha

Russia / Yaroslavl Oblast     57°38′39″N   39°46′09″E
temp.,
°C
wind,
m/s
gust,
m/s
humid.,
%
clouds,
%
prec.,
mm/h
press.,
hPa
HPBL,
m
13 april, tue
tue1300:00+8se51189100 0.0 1030423
03:00+6se4895100 0.0 1029228
06:00+5ese489785 0.0 1028176
09:00+10sse41079100 0.0 1026365
12:00+17s6115397 0.0 1025782
15:00+19s7104499 0.0 10241340
18:00+17s51051100 0.0 1023271
21:00+12s496665 0.0 1024139
14 april, wed
wed1400:00+10s3107188 0.0 1023147
03:00+8s310735 0.0 1023162
06:00+7s4117622 0.0 1022186
09:00+13s510558 0.0 1022373
12:00+17s694266 0.0 1020865
15:00+19s6837100 0.0 10191411
18:00+16s3748100 0.0 1018162
21:00+12s3358100 0.0 101926
15 april, thu
thu1500:00+10ssw226439 0.0 101913
03:00+8w116993 0.0 101910
06:00+8nne1171100 0.0 101910
09:00+11ne2363100 0.0 1020228
12:00+14ne3357100 0.0 1019673
15:00+14nne5568100 0.0 1020802
18:00+10nne6977100 0.2 1021503
21:00+7ne61282100 0.2 1022497
16 april, fri
fri1600:00+6ne5128485 0.0 1023458
03:00+5ne5108385 0.0 1023414
06:00+4ne5108693 0.0 1024396
09:00+6ne69605 0.0 1025600
12:00+10ne67445 0.0 10251065
15:00+11ne673559 0.0 10261359
18:00+10ne584271 0.0 1026903
21:00+6nne4116099 0.0 1028255
17 april, sat
sat1700:00+4ne4116421 0.0 1029245
03:00+2ne38730 0.0 1030162
06:00+1ne410735 0.0 1032247
09:00+6ne68613 0.0 1033658
12:00+8ne67465 0.0 10331381
15:00+9ne67325 0.0 10331564
18:00+8ne564031 0.0 10331131
21:00+4ne375768 0.0 1034128